sat.trackr.live / text

‹ back to catalog

NASBSAT-1

NORAD 67289 · 2025-313AT

PAYLOAD ACTIVE UNKNOWN

§ Identity

Operator
Country
BELA
Launch date
2025-12-28
Launch site
VOSTO
Launch vehicle
Mass (kg)
RCS (m²)

External: N2YO · Heavens-Above · Gunter

§ Orbital elements

Epoch: 2026-05-25T03:25:14.996352Z

Period
94.40 min
Inclination
97.3941°
Eccentricity
0.0010744
Mean motion
15.25349319 rev/d
Perigee alt
482.4 km
Apogee alt
497.1 km
Semi-major
6,867.9 km
B*
4.8614e-4
RAAN
220.5822°
Arg perigee
81.8233°
Mean anomaly
278.4223°
Rev number
2,247

§ Raw data

NASBSAT-11 67289U 25313AT  26145.14253468  .00012214  00000+0  48614-3 0  99922 67289  97.3941 220.5822 0010744  81.8233 278.4223 15.25349319 22474

JSON: /api/v1/satellites/67289 · /tle

For live sub-satellite position, see the globe view (requires WebGL).

§ Visibility from observer

Set your observer location to see the next 7 days of passes ≥ 10°. The values pass through the URL so the page stays shareable.

No JS? Fill the form by hand. The geolocation button needs JavaScript.